TimeCDT,TemperatureF,Dew PointF,Humidity,Sea Level PressureIn,VisibilityMPH,Wind Direction,Wind SpeedMPH,Gust SpeedMPH,PrecipitationIn,Events,Conditions,WindDirDegrees,DateUTC
12:06 AM,73.4,69.8,88,30.01,1.2,Calm,Calm,-,N/A,,Scattered Clouds,0,2013-06-20 05:06:00
12:17 AM,73.4,69.8,88,30.01,2.0,Calm,Calm,-,N/A,,Partly Cloudy,0,2013-06-20 05:17:00
12:36 AM,73.4,69.8,88,30.01,1.2,Calm,Calm,-,N/A,,Clear,0,2013-06-20 05:36:00
12:47 AM,71.6,69.8,94,30.01,3.0,Calm,Calm,-,N/A,,Clear,0,2013-06-20 05:47:00
12:54 AM,72.0,70.0,93,30.09,5.0,Calm,Calm,-,N/A,,Clear,0,2013-06-20 05:54:00
1:22 AM,71.6,69.8,94,30.01,1.8,Calm,Calm,-,N/A,,Clear,0,2013-06-20 06:22:00
1:33 AM,71.6,69.8,94,30.00,3.0,Calm,Calm,-,N/A,,Clear,0,2013-06-20 06:33:00
1:54 AM,72.0,69.1,91,30.08,2.5,Calm,Calm,-,N/A,,Clear,0,2013-06-20 06:54:00
2:06 AM,71.6,69.8,94,30.00,3.0,Calm,Calm,-,N/A,,Clear,0,2013-06-20 07:06:00
2:34 AM,71.6,69.8,94,29.99,1.8,Calm,Calm,-,N/A,,Partly Cloudy,0,2013-06-20 07:34:00
2:40 AM,71.6,69.8,94,29.99,0.8,Calm,Calm,-,N/A,,Mist,0,2013-06-20 07:40:00
2:48 AM,71.6,69.8,94,29.99,1.2,Calm,Calm,-,N/A,,Partly Cloudy,0,2013-06-20 07:48:00
2:54 AM,71.1,69.1,93,30.07,2.0,Calm,Calm,-,N/A,,Partly Cloudy,0,2013-06-20 07:54:00
3:24 AM,71.6,69.8,94,29.99,5.0,Calm,Calm,-,N/A,,Clear,0,2013-06-20 08:24:00
3:54 AM,72.0,69.1,91,30.07,5.0,Calm,Calm,-,N/A,,Partly Cloudy,0,2013-06-20 08:54:00
4:17 AM,71.6,69.8,94,29.99,3.0,Calm,Calm,-,N/A,,Mostly Cloudy,0,2013-06-20 09:17:00
4:25 AM,71.6,69.8,94,29.99,4.0,Calm,Calm,-,N/A,,Scattered Clouds,0,2013-06-20 09:25:00
4:46 AM,71.6,69.8,94,30.00,1.8,Calm,Calm,-,N/A,,Partly Cloudy,0,2013-06-20 09:46:00
4:54 AM,71.1,69.1,93,30.07,3.0,Calm,Calm,-,N/A,,Scattered Clouds,0,2013-06-20 09:54:00
5:20 AM,71.6,69.8,94,30.01,2.5,Calm,Calm,-,N/A,,Mostly Cloudy,0,2013-06-20 10:20:00
5:54 AM,72.0,69.1,91,30.09,2.5,Calm,Calm,-,N/A,,Mostly Cloudy,0,2013-06-20 10:54:00
6:04 AM,71.6,69.8,94,30.02,1.8,Calm,Calm,-,N/A,,Mostly Cloudy,0,2013-06-20 11:04:00
6:11 AM,71.6,69.8,94,30.02,2.0,Calm,Calm,-,N/A,,Mostly Cloudy,0,2013-06-20 11:11:00
6:30 AM,71.6,68.0,88,30.03,3.0,Calm,Calm,-,N/A,,Mostly Cloudy,0,2013-06-20 11:30:00
6:54 AM,73.0,70.0,90,30.12,4.0,Calm,Calm,-,N/A,,Mostly Cloudy,0,2013-06-20 11:54:00
7:54 AM,77.0,73.9,90,30.13,6.0,Calm,Calm,-,0.00,Rain-Thunderstorm,Light Thunderstorms and Rain,0,2013-06-20 12:54:00
8:24 AM,77.0,73.4,89,30.07,10.0,Calm,Calm,-,0.00,,Overcast,0,2013-06-20 13:24:00
8:54 AM,79.0,73.9,84,30.15,10.0,Calm,Calm,-,0.00,,Clear,0,2013-06-20 13:54:00
9:54 AM,82.9,77.0,82,30.17,10.0,Calm,Calm,-,N/A,,Mostly Cloudy,0,2013-06-20 14:54:00
10:54 AM,86.0,75.0,70,30.17,10.0,Variable,3.5,-,N/A,,Scattered Clouds,0,2013-06-20 15:54:00
11:54 AM,88.0,71.1,57,30.16,10.0,Variable,3.5,-,N/A,,Partly Cloudy,0,2013-06-20 16:54:00
12:54 PM,90.0,70.0,52,30.15,10.0,Variable,5.8,-,N/A,,Partly Cloudy,0,2013-06-20 17:54:00
1:54 PM,91.0,69.1,48,30.13,10.0,Variable,4.6,-,N/A,,Clear,0,2013-06-20 18:54:00
2:54 PM,91.0,70.0,50,30.11,10.0,Calm,Calm,-,N/A,,Scattered Clouds,0,2013-06-20 19:54:00
3:54 PM,91.0,70.0,50,30.10,10.0,Variable,3.5,-,N/A,,Mostly Cloudy,0,2013-06-20 20:54:00
4:54 PM,91.0,70.0,50,30.09,10.0,Calm,Calm,-,N/A,,Mostly Cloudy,0,2013-06-20 21:54:00
5:54 PM,89.1,71.1,55,30.08,10.0,Calm,Calm,-,N/A,,Scattered Clouds,0,2013-06-20 22:54:00
6:34 PM,84.2,71.6,66,30.03,10.0,Variable,4.6,-,N/A,Thunderstorm,Thunderstorm,0,2013-06-20 23:34:00
6:54 PM,82.9,73.9,74,30.12,10.0,Variable,4.6,-,0.00,Rain,Light Rain,0,2013-06-20 23:54:00
7:07 PM,80.6,75.2,84,30.03,5.0,Variable,3.5,-,0.02,Rain-Thunderstorm,Thunderstorms and Rain,0,2013-06-21 00:07:00
7:22 PM,78.8,75.2,89,30.03,4.0,Calm,Calm,-,0.04,Rain,Light Rain,0,2013-06-21 00:22:00
7:54 PM,79.0,75.0,88,30.10,10.0,Calm,Calm,-,0.04,,Scattered Clouds,0,2013-06-21 00:54:00
8:21 PM,78.8,75.2,89,30.03,9.0,Calm,Calm,-,N/A,Thunderstorm,Thunderstorm,0,2013-06-21 01:21:00
8:36 PM,78.8,75.2,89,30.03,9.0,Calm,Calm,-,N/A,,Clear,0,2013-06-21 01:36:00
8:54 PM,78.1,73.9,87,30.11,8.0,Calm,Calm,-,N/A,,Clear,0,2013-06-21 01:54:00
9:54 PM,75.9,73.9,94,30.12,6.0,Calm,Calm,-,N/A,,Clear,0,2013-06-21 02:54:00
10:54 PM,75.9,73.0,91,30.13,6.0,Calm,Calm,-,N/A,,Clear,0,2013-06-21 03:54:00
11:54 PM,75.9,73.0,91,30.14,5.0,Calm,Calm,-,N/A,,Clear,0,2013-06-21 04:54:00